Regional Weather Roundup
Issued by NWS Goodland, KS

Home | Current Version | Previous Version | Text Only | Print | Product List | Glossary On
Versions: 1 2 3 4 5 6 7 8 9 10 11 12 13 14 15 16 17 18 19 20 21 22 23 24 25 26 27 28 29 30 31 32 33 34 35 36 37 38 39 40 41 42 43 44 45 46 47 48 49 50
178
ASUS43 KGLD 110208
RWRGLD

GOODLAND FORECAST AREA HOURLY WEATHER ROUNDUP
NATIONAL WEATHER SERVICE GOODLAND KS
700 PM MST WED FEB 10 2016

...OFFICIAL OBSERVATIONS...

CITY           SKY/WX    TMP DP  RH WIND       PRES   REMARKS
GOODLAND KS    CLOUDY    44  28  53 NW9       30.08R
HILL CITY KS   CLOUDY    45  31  58 NW12G21   30.01R
IMPERIAL NEB   CLOUDY    39  29  67 W10       30.05R
MCCOOK NEB     CLOUDY    40  30  67 CALM      30.03R
AKRON CO       CLOUDY    42  25  50 N17       30.12R
BURLINGTON CO  CLOUDY    38  29  70 W7        30.11R
LIMON CO       CLOUDY    39  26  59 N9        30.15R
$$

...UNOFFICIAL OBSERVATIONS...

CITY           SKY/WX    TMP DP  RH WIND       PRES   REMARKS
COLBY KS       CLEAR     41  34  75 W14       30.06R
GOVE KS          N/A     42  32  68 MISG        N/A
LENORA KS        N/A     45  32  60 MISG        N/A
NORTON KS      CLEAR     39  27  60 W13       30.00R
SHARON SPRINGS   N/A     47  31  53 NW9         N/A
TRENTON NEB      N/A     42  32  68 MISG        N/A
KIT CARSON CO    N/A     44  29  54 MISG        N/A
YUMA CO          N/A     42  28  58 NW12        N/A
$$




USA.gov is the U.S. government's official web portal to all federal, state and local government web resources and services.